Tiempo cada hora Barrancas

Hoy, 1 Marzo, Lunes

Tiempo Temperatura Precipitaciones Viento Presión Humedad
00:00 +28°C° 0 mm 6 mps 751 mmHg 58%
01:00 +27°C° 0 mm 5 mps 751 mmHg 60%
02:00 +27°C° 0 mm 5 mps 751 mmHg 62%
03:00 +26°C° 0 mm 4 mps 751 mmHg 65%
04:00 +25°C° 0 mm 3 mps 751 mmHg 68%
05:00 +25°C° 0 mm 3 mps 751 mmHg 71%
06:00 +25°C° 0 mm 3 mps 751 mmHg 69%
07:00 +26°C° 0 mm 4 mps 752 mmHg 67%
08:00 +26°C° 0 mm 4 mps 752 mmHg 65%
09:00 +28°C° 0 mm 5 mps 752 mmHg 55%
10:00 +32°C° 0 mm 6 mps 752 mmHg 45%
11:00 +34°C° 0 mm 6 mps 752 mmHg 35%
12:00 +35°C° 0 mm 6 mps 751 mmHg 33%
13:00 +36°C° 0 mm 6 mps 750 mmHg 30%
14:00 +36°C° 0 mm 5 mps 749 mmHg 28%
15:00 +38°C° 0 mm 6 mps 749 mmHg 27%
16:00 +38°C° 0 mm 6 mps 748 mmHg 26%
17:00 +38°C° 0 mm 6 mps 748 mmHg 25%
18:00 +35°C° 0 mm 6 mps 748 mmHg 31%
19:00 +34°C° 0 mm 7 mps 749 mmHg 37%
20:00 +32°C° 0 mm 7 mps 749 mmHg 42%
21:00 +30°C° 0 mm 7 mps 750 mmHg 49%
22:00 +28°C° 0 mm 7 mps 751 mmHg 55%
23:00 +27°C° 0 mm 7 mps 751 mmHg 61%

Mañana, 2 Marzo, Martes

Tiempo Temperatura Precipitaciones Viento Presión Humedad
00:00 +26°C° 0 mm 6 mps 751 mmHg 63%
01:00 +26°C° 0 mm 5 mps 751 mmHg 65%
02:00 +26°C° 0 mm 5 mps 751 mmHg 67%
03:00 +26°C° 0 mm 4 mps 751 mmHg 69%
04:00 +25°C° 0 mm 4 mps 751 mmHg 71%
05:00 +25°C° 0 mm 4 mps 751 mmHg 73%
06:00 +25°C° 0 mm 4 mps 751 mmHg 71%
07:00 +26°C° 0 mm 4 mps 752 mmHg 69%
08:00 +26°C° 0 mm 4 mps 753 mmHg 67%
09:00 +28°C° 0 mm 5 mps 753 mmHg 58%
10:00 +30°C° 0 mm 5 mps 753 mmHg 48%
11:00 +33°C° 0 mm 5 mps 753 mmHg 38%
12:00 +35°C° 0 mm 5 mps 752 mmHg 34%
13:00 +36°C° 0 mm 5 mps 751 mmHg 30%
14:00 +37°C° 0 mm 5 mps 750 mmHg 26%
15:00 +39°C° 0 mm 5 mps 749 mmHg 24%
16:00 +39°C° 0 mm 5 mps 749 mmHg 23%
17:00 +39°C° 0 mm 5 mps 748 mmHg 22%
18:00 +36°C° 0 mm 6 mps 749 mmHg 27%
19:00 +35°C° 0 mm 6 mps 750 mmHg 31%
20:00 +33°C° 0 mm 7 mps 750 mmHg 35%
21:00 +30°C° 0 mm 7 mps 751 mmHg 42%
22:00 +28°C° 0 mm 7 mps 751 mmHg 48%
23:00 +27°C° 0 mm 7 mps 752 mmHg 55%

Pasado mañana, 3 Marzo, Miércoles

Tiempo Temperatura Precipitaciones Viento Presión Humedad
00:00 +26°C° 0 mm 6 mps 752 mmHg 57%
01:00 +26°C° 0 mm 5 mps 752 mmHg 60%
02:00 +26°C° 0 mm 4 mps 752 mmHg 63%
03:00 +26°C° 0 mm 4 mps 752 mmHg 65%
04:00 +25°C° 0 mm 4 mps 752 mmHg 68%
05:00 +25°C° 0 mm 3 mps 752 mmHg 71%
06:00 +26°C° 0 mm 4 mps 752 mmHg 70%
07:00 +26°C° 0 mm 4 mps 753 mmHg 68%
08:00 +27°C° 0 mm 4 mps 754 mmHg 67%
09:00 +29°C° 0 mm 5 mps 754 mmHg 60%
10:00 +30°C° 0 mm 5 mps 754 mmHg 53%
11:00 +33°C° 0 mm 5 mps 754 mmHg 46%
12:00 +34°C° 0 mm 5 mps 753 mmHg 43%
13:00 +35°C° 0 mm 5 mps 752 mmHg 39%
14:00 +36°C° 0 mm 5 mps 751 mmHg 36%
15:00 +36°C° 0 mm 5 mps 750 mmHg 34%
16:00 +37°C° 0 mm 5 mps 750 mmHg 32%
17:00 +37°C° 0 mm 5 mps 749 mmHg 31%
18:00 +36°C° 0 mm 5 mps 750 mmHg 34%
19:00 +34°C° 0 mm 4 mps 750 mmHg 37%
20:00 +33°C° 0 mm 4 mps 751 mmHg 41%
21:00 +32°C° 0 mm 5 mps 751 mmHg 47%
22:00 +29°C° 0 mm 5 mps 752 mmHg 53%
23:00 +28°C° 0 mm 6 mps 753 mmHg 59%

4 Marzo, Jueves

Tiempo Temperatura Precipitaciones Viento Presión Humedad
00:00 +28°C° 0 mm 6 mps 752 mmHg 61%
01:00 +28°C° 0 mm 5 mps 752 mmHg 63%
02:00 +27°C° 0 mm 5 mps 752 mmHg 66%
03:00 +27°C° 0 mm 5 mps 752 mmHg 65%
04:00 +27°C° 0 mm 4 mps 752 mmHg 64%
05:00 +27°C° 0 mm 4 mps 752 mmHg 64%
06:00 +28°C° 0 mm 5 mps 753 mmHg 63%
07:00 +28°C° 0 mm 5 mps 753 mmHg 63%
08:00 +28°C° 0 mm 5 mps 754 mmHg 63%
09:00 +30°C° 0 mm 5 mps 754 mmHg 57%
10:00 +33°C° 0 mm 5 mps 754 mmHg 51%
11:00 +35°C° 0 mm 5 mps 754 mmHg 45%
12:00 +36°C° 0 mm 5 mps 752 mmHg 42%
13:00 +36°C° 0 mm 5 mps 751 mmHg 40%
14:00 +37°C° 0 mm 4 mps 750 mmHg 37%
15:00 +37°C° 0 mm 4 mps 750 mmHg 37%
16:00 +37°C° 0 mm 4 mps 749 mmHg 36%
17:00 +37°C° 0 mm 4 mps 749 mmHg 36%
18:00 +36°C° 0.1 mm 4 mps 749 mmHg 39%
19:00 +35°C° 0.1 mm 4 mps 750 mmHg 42%
20:00 +34°C° 0.1 mm 4 mps 750 mmHg 46%
21:00 +33°C° 1.1 mm 4 mps 751 mmHg 54%
22:00 +30°C° 1.1 mm 4 mps 752 mmHg 61%
23:00 +28°C° 1.1 mm 4 mps 752 mmHg 69%

5 Marzo, Viernes

Tiempo Temperatura Precipitaciones Viento Presión Humedad
00:00 +28°C° 0.9 mm 5 mps 752 mmHg 71%
01:00 +28°C° 0.9 mm 5 mps 752 mmHg 73%
02:00 +28°C° 0.9 mm 5 mps 751 mmHg 74%
03:00 +28°C° 0.3 mm 5 mps 751 mmHg 74%
04:00 +27°C° 0.3 mm 5 mps 751 mmHg 75%
05:00 +27°C° 0.3 mm 5 mps 751 mmHg 75%
06:00 +28°C° 0.1 mm 5 mps 751 mmHg 73%
07:00 +28°C° 0.1 mm 5 mps 752 mmHg 72%
08:00 +28°C° 0.1 mm 5 mps 752 mmHg 71%
09:00 +30°C° 0 mm 5 mps 753 mmHg 64%
10:00 +32°C° 0 mm 5 mps 753 mmHg 57%
11:00 +34°C° 0 mm 6 mps 753 mmHg 50%
12:00 +35°C° 0 mm 6 mps 752 mmHg 46%
13:00 +36°C° 0 mm 6 mps 751 mmHg 42%
14:00 +38°C° 0 mm 6 mps 749 mmHg 39%
15:00 +37°C° 0 mm 5 mps 749 mmHg 38%
16:00 +37°C° 0 mm 5 mps 748 mmHg 38%
17:00 +39°C° 0 mm 5 mps 748 mmHg 38%
18:00 +37°C° 0 mm 5 mps 748 mmHg 39%
19:00 +36°C° 0 mm 5 mps 749 mmHg 41%
20:00 +35°C° 0 mm 5 mps 749 mmHg 43%
21:00 +34°C° 0.3 mm 5 mps 750 mmHg 49%
22:00 +33°C° 0.3 mm 6 mps 750 mmHg 56%
23:00 +32°C° 0.3 mm 6 mps 751 mmHg 62%

6 Marzo, Sábado

Tiempo Temperatura Precipitaciones Viento Presión Humedad
00:00 +30°C° 0 mm 6 mps 751 mmHg 63%
01:00 +29°C° 0 mm 6 mps 751 mmHg 65%
02:00 +29°C° 0 mm 6 mps 750 mmHg 67%
03:00 +29°C° 0 mm 6 mps 750 mmHg 68%
04:00 +28°C° 0 mm 6 mps 750 mmHg 69%
05:00 +28°C° 0 mm 6 mps 750 mmHg 70%
06:00 +28°C° 0 mm 6 mps 751 mmHg 69%
07:00 +29°C° 0 mm 6 mps 751 mmHg 68%
08:00 +29°C° 0 mm 7 mps 752 mmHg 67%
09:00 +32°C° 0 mm 7 mps 752 mmHg 60%
10:00 +33°C° 0 mm 7 mps 752 mmHg 53%
11:00 +35°C° 0 mm 7 mps 753 mmHg 46%
12:00 +36°C° 0 mm 7 mps 751 mmHg 41%
13:00 +38°C° 0 mm 7 mps 750 mmHg 37%
14:00 +40°C° 0 mm 7 mps 749 mmHg 33%
15:00 +40°C° 0 mm 7 mps 749 mmHg 34%
16:00 +39°C° 0 mm 6 mps 748 mmHg 34%
17:00 +39°C° 0 mm 6 mps 748 mmHg 34%
18:00 +38°C° 0 mm 6 mps 748 mmHg 37%
19:00 +36°C° 0 mm 6 mps 749 mmHg 40%
20:00 +35°C° 0 mm 6 mps 749 mmHg 43%
21:00 +35°C° 0 mm 6 mps 750 mmHg 46%
22:00 +34°C° 0 mm 7 mps 751 mmHg 49%
23:00 +33°C° 0 mm 7 mps 751 mmHg 52%
Mostrar más

Necesitamos Su Consentimiento

Meteoprog y nuestros Proveedores de Servicios pueden almacenar y acceder a sus datos personales como cookies, identificadores de dispositivo u otras tecnologías similares de su dispositivo y procesar dichos datos para personalizar contenido y anuncios, además de ofrecer funciones de redes sociales y analizar el tráfico.

  • Almacenar y/o acceder a información en su dispositivo

    Se puede almacenar o acceder a cookies, identificadores de dispositivo u otra información de su dispositivo para los fines anteriormente indicados.

  • Anuncios y contenido personalizados, medición de anuncios y contenido, percepciones del público, y desarrollo de productos

    Los anuncios y el contenido pueden personalizarse en base a su perfil. Se pueden añadir más datos para personalizar mejor los anuncios y contenidos. Se puede medir el rendimiento de los anuncios y contenidos. Se puede obtener la percepción sobre el público que ha visto los anuncios y contenidos. Dichos datos pueden usarse para desarrollar o mejorar la experiencia del usuario, sistemas y software.

Al hacer clic en ‘Estoy De Acuerdo’ usted permitirá el uso de las cookies, identificadores de dispositivo, balizas web u otras tecnologías similares indicadas. Su configuración puede cambiarse desde el navegador de su dispositivo.

Para ciertos fines, los intereses legítimos pueden ser considerados por encima del consentimiento. Puede leer más sobre ello en nuestra Política de Privacidad y Cookies.